Погода в Волго-Каспийском

Россия / Астраханская область     46°12′08″N   47°55′02″E
темп.,
°C
ветер,
м/с
пор.,
м/с
влажн.,
%
обл.,
%
осадки,
мм/ч
давл.,
гПа
погр.,
м
6 мая, чт
чт601:00+14ссз1245100 0.0 101984
04:00+13всв3643100 0.0 1019130
07:00+13в384499 0.0 1020294
10:00+18в5533100 0.0 10201686
13:00+20вюв543171 0.0 10182315
16:00+20вюв64328 0.0 10172185
19:00+17вюв66430 0.0 1018820
22:00+14юв34480 0.0 1018125
7 мая, пт
пт701:00+13вюв22495 0.0 101733
04:00+11в11517 0.0 101719
07:00+13всв2245100 0.0 101889
10:00+18св2231100 0.0 1019803
13:00+21с112487 0.0 10181950
16:00+22сз22225 0.0 10172113
19:00+21зсз3325100 0.0 1017644
22:00+16юз47425 0.0 1019170
8 мая, сб
сб801:00+15юз355554 0.0 1019119
04:00+14юз33570 0.0 101955
07:00+15ююз23532 0.0 1019112
10:00+21ююз33335 0.0 1019887
13:00+24ю43270 0.0 10182153
16:00+24ю65270 0.0 10171872
19:00+21ююв56335 0.0 1017833
22:00+16ююв485093 0.0 1017254
9 мая, вс
вс901:00+15ююв3859100 0.0 1016235
04:00+14юв3769100 0.0 1015168
07:00+16вюв512636 0.0 1014450
10:00+23юв911325 0.0 10121282
13:00+25ююв101329100 0.0 10111650
16:00+24ю81130100 0.0 10111583
19:00+21ю4548100 0.0 1011509
22:00+15зсз101278100 0.2 1013658
10 мая, пн
пн1001:00+10зсз101578100 0.8 1015723
04:00+9сз101581100 2.9 1016919
07:00+9зсз71374100 2.0 10171100
10:00+10зсз71165100 3.1 10181228
13:00+14з7946100 0.1 10171998
16:00+14з7847100 0.1 10182027
19:00+13з574772 0.0 10181703
22:00+12з34585 0.0 1019198